Time,TemperatureF,DewpointF,PressureIn,WindDirection,WindDirectionDegrees,WindSpeedMPH,WindSpeedGustMPH,Humidity,HourlyPrecipIn,Conditions,Clouds,dailyrainin,SoftwareType,DateUTC
2013-06-01 00:01:00,68.0,4.5,29.98,NNE,22,13.9,13.9,8,0.00,,---,0.00,VWS V14.01,2013-06-01 06:01:00,
2013-06-01 00:06:00,67.9,7.0,29.98,North,0,9.2,9.2,9,0.00,,---,0.00,VWS V14.01,2013-06-01 06:06:00,
2013-06-01 00:11:00,68.0,7.1,29.98,NNW,338,5.4,5.4,9,0.00,,---,0.00,VWS V14.01,2013-06-01 06:11:00,
2013-06-01 00:16:00,68.0,9.4,29.98,NNW,338,2.7,2.7,10,0.00,,---,0.00,VWS V14.01,2013-06-01 06:16:00,
2013-06-01 00:21:00,68.0,9.4,29.98,NW,315,3.8,3.8,10,0.00,,---,0.00,VWS V14.01,2013-06-01 06:21:00,
2013-06-01 00:26:00,67.7,9.2,29.99,NW,315,4.3,4.3,10,0.00,,---,0.00,VWS V14.01,2013-06-01 06:26:00,
2013-06-01 00:30:00,67.5,9.1,29.98,NNE,22,4.0,4.0,10,0.00,,---,0.00,VWS V14.01,2013-06-01 06:30:00,
2013-06-01 00:35:00,67.7,9.2,29.99,NW,315,3.6,3.6,10,0.00,,---,0.00,VWS V14.01,2013-06-01 06:35:00,
2013-06-01 00:40:00,67.7,9.2,29.99,North,0,3.6,3.6,10,0.00,,---,0.00,VWS V14.01,2013-06-01 06:40:00,
2013-06-01 00:45:00,67.5,9.1,29.99,NNE,22,3.4,3.4,10,0.00,,---,0.00,VWS V14.01,2013-06-01 06:45:00,
2013-06-01 00:50:00,67.5,9.1,29.99,NNW,338,4.0,4.0,10,0.00,,---,0.00,VWS V14.01,2013-06-01 06:50:00,
2013-06-01 00:55:00,67.3,8.9,29.99,WNW,292,3.8,3.8,10,0.00,,---,0.00,VWS V14.01,2013-06-01 06:55:00,
2013-06-01 01:00:00,67.1,8.7,29.99,West,270,1.8,1.8,10,0.00,,---,0.00,VWS V14.01,2013-06-01 07:00:00,
2013-06-01 01:05:00,66.6,8.4,29.98,SSW,202,0.4,0.4,10,0.00,,---,0.00,VWS V14.01,2013-06-01 07:05:00,
2013-06-01 01:10:00,65.9,9.9,29.98,SW,225,0.2,0.2,11,0.00,,---,0.00,VWS V14.01,2013-06-01 07:10:00,
2013-06-01 01:15:00,65.0,9.2,29.99,SSW,202,0.4,0.4,11,0.00,,---,0.00,VWS V14.01,2013-06-01 07:15:00,
2013-06-01 01:20:00,64.3,8.7,29.99,SSW,202,0.4,0.4,11,0.00,,---,0.00,VWS V14.01,2013-06-01 07:20:00,
2013-06-01 01:25:00,63.4,8.0,29.99,SSW,202,0.0,0.0,11,0.00,,---,0.00,VWS V14.01,2013-06-01 07:25:00,
2013-06-01 01:30:00,62.5,9.2,29.99,SSW,202,0.0,0.0,12,0.00,,---,0.00,VWS V14.01,2013-06-01 07:30:00,
2013-06-01 01:35:00,61.7,8.6,29.99,WNW,292,0.0,0.0,12,0.00,,---,0.00,VWS V14.01,2013-06-01 07:35:00,
2013-06-01 01:40:00,61.6,10.3,29.99,NW,315,0.4,0.4,13,0.00,,---,0.00,VWS V14.01,2013-06-01 07:40:00,
2013-06-01 01:45:00,61.4,10.1,29.99,NNW,338,0.2,0.2,13,0.00,,---,0.00,VWS V14.01,2013-06-01 07:45:00,
2013-06-01 01:50:00,61.4,10.1,29.99,NNW,338,0.0,0.0,13,0.00,,---,0.00,VWS V14.01,2013-06-01 07:50:00,
2013-06-01 01:55:00,61.0,9.8,29.98,NNW,338,0.0,0.0,13,0.00,,---,0.00,VWS V14.01,2013-06-01 07:55:00,
2013-06-01 02:00:00,60.7,9.6,29.98,NNW,338,0.0,0.0,13,0.00,,---,0.00,VWS V14.01,2013-06-01 08:00:00,
2013-06-01 02:05:00,60.1,10.8,29.99,NNW,338,0.0,0.0,14,0.00,,---,0.00,VWS V14.01,2013-06-01 08:05:00,
2013-06-01 02:10:00,59.9,12.2,29.98,SSE,158,0.0,0.0,15,0.00,,---,0.00,VWS V14.01,2013-06-01 08:10:00,
2013-06-01 02:15:00,59.8,12.1,29.99,SSE,158,0.0,0.0,15,0.00,,---,0.00,VWS V14.01,2013-06-01 08:15:00,
2013-06-01 02:20:00,59.6,11.9,29.99,SSW,202,0.0,0.0,15,0.00,,---,0.00,VWS V14.01,2013-06-01 08:20:00,
2013-06-01 02:25:00,59.8,12.1,30.00,SSW,202,0.0,0.0,15,0.00,,---,0.00,VWS V14.01,2013-06-01 08:25:00,
2013-06-01 02:30:00,59.4,11.8,30.00,SSW,202,0.0,0.0,15,0.00,,---,0.00,VWS V14.01,2013-06-01 08:30:00,
2013-06-01 02:35:00,58.7,9.6,30.00,WNW,292,1.1,1.1,14,0.00,,---,0.00,VWS V14.01,2013-06-01 08:35:00,
2013-06-01 02:40:00,58.9,11.4,29.99,NW,315,0.4,0.4,15,0.00,,---,0.00,VWS V14.01,2013-06-01 08:40:00,
2013-06-01 02:45:00,59.4,10.2,29.99,WNW,292,1.3,1.3,14,0.00,,---,0.00,VWS V14.01,2013-06-01 08:45:00,
2013-06-01 02:50:00,59.8,8.9,30.00,North,0,0.7,0.7,13,0.00,,---,0.00,VWS V14.01,2013-06-01 08:50:00,
2013-06-01 02:55:00,60.1,10.8,29.99,NNE,22,0.9,0.9,14,0.00,,---,0.00,VWS V14.01,2013-06-01 08:55:00,
2013-06-01 03:00:00,59.8,12.1,29.99,ENE,68,1.3,1.3,15,0.00,,---,0.00,VWS V14.01,2013-06-01 09:00:00,
2013-06-01 03:05:00,59.4,10.2,30.00,NNE,22,0.9,0.9,14,0.00,,---,0.00,VWS V14.01,2013-06-01 09:05:00,
2013-06-01 03:10:00,59.4,11.8,29.99,ENE,68,0.2,0.2,15,0.00,,---,0.00,VWS V14.01,2013-06-01 09:10:00,
2013-06-01 03:15:00,58.9,11.4,30.00,East,90,0.4,0.4,15,0.00,,---,0.00,VWS V14.01,2013-06-01 09:15:00,
2013-06-01 03:20:00,58.5,11.0,29.99,East,90,0.0,0.0,15,0.00,,---,0.00,VWS V14.01,2013-06-01 09:20:00,
2013-06-01 03:25:00,58.0,12.1,30.00,ESE,112,0.0,0.0,16,0.00,,---,0.00,VWS V14.01,2013-06-01 09:25:00,
2013-06-01 03:30:00,57.2,11.4,30.00,ESE,112,0.0,0.0,16,0.00,,---,0.00,VWS V14.01,2013-06-01 09:30:00,
2013-06-01 03:35:00,56.5,12.2,30.00,ESE,112,0.4,0.4,17,0.00,,---,0.00,VWS V14.01,2013-06-01 09:35:00,
2013-06-01 03:40:00,56.0,11.8,30.00,East,90,0.0,0.0,17,0.00,,---,0.00,VWS V14.01,2013-06-01 09:40:00,
2013-06-01 03:45:00,55.4,11.3,30.00,ENE,68,0.0,0.0,17,0.00,,---,0.00,VWS V14.01,2013-06-01 09:45:00,
2013-06-01 03:50:00,55.1,12.4,30.00,NNE,22,0.0,0.0,18,0.00,,---,0.00,VWS V14.01,2013-06-01 09:50:00,
2013-06-01 03:55:00,54.7,10.8,30.00,NNE,22,0.0,0.0,17,0.00,,---,0.00,VWS V14.01,2013-06-01 09:55:00,
2013-06-01 04:00:00,54.4,11.8,30.01,ESE,112,0.4,0.4,18,0.00,,---,0.00,VWS V14.01,2013-06-01 10:00:00,
2013-06-01 04:05:00,54.0,10.2,30.01,ESE,112,0.0,0.0,17,0.00,,---,0.00,VWS V14.01,2013-06-01 10:05:00,
2013-06-01 04:10:00,53.8,13.7,30.01,ESE,112,0.2,0.2,20,0.00,,---,0.00,VWS V14.01,2013-06-01 10:10:00,
2013-06-01 04:15:00,53.8,14.8,30.01,ENE,68,0.7,0.7,21,0.00,,---,0.00,VWS V14.01,2013-06-01 10:15:00,
2013-06-01 04:20:00,53.6,13.5,30.01,ENE,68,0.0,0.0,20,0.00,,---,0.00,VWS V14.01,2013-06-01 10:20:00,
2013-06-01 04:25:00,53.6,14.6,30.01,ENE,68,0.7,0.7,21,0.00,,---,0.00,VWS V14.01,2013-06-01 10:25:00,
2013-06-01 04:30:00,53.6,13.5,30.01,East,90,0.7,0.7,20,0.00,,---,0.00,VWS V14.01,2013-06-01 10:30:00,
2013-06-01 04:35:00,53.6,13.5,30.01,East,90,0.0,0.0,20,0.00,,---,0.00,VWS V14.01,2013-06-01 10:35:00,
2013-06-01 04:40:00,53.6,14.6,30.01,ENE,68,0.4,0.4,21,0.00,,---,0.00,VWS V14.01,2013-06-01 10:40:00,
2013-06-01 04:45:00,53.5,14.6,30.02,ENE,68,1.3,1.3,21,0.00,,---,0.00,VWS V14.01,2013-06-01 10:45:00,
2013-06-01 04:50:00,54.0,13.9,30.02,ENE,68,0.7,0.7,20,0.00,,---,0.00,VWS V14.01,2013-06-01 10:50:00,
2013-06-01 04:55:00,54.0,13.9,30.02,ENE,68,0.0,0.0,20,0.00,,---,0.00,VWS V14.01,2013-06-01 10:55:00,
2013-06-01 05:00:00,53.3,13.3,30.03,ENE,68,0.0,0.0,20,0.00,,---,0.00,VWS V14.01,2013-06-01 11:00:00,
2013-06-01 05:05:00,53.1,14.2,30.03,ENE,68,0.9,0.9,21,0.00,,---,0.00,VWS V14.01,2013-06-01 11:05:00,
2013-06-01 05:10:00,52.9,14.1,30.03,ENE,68,0.2,0.2,21,0.00,,---,0.00,VWS V14.01,2013-06-01 11:10:00,
2013-06-01 05:15:00,52.7,13.9,30.03,ENE,68,0.0,0.0,21,0.00,,---,0.00,VWS V14.01,2013-06-01 11:15:00,
2013-06-01 05:20:00,52.6,14.9,30.03,NNE,22,1.1,1.1,22,0.00,,---,0.00,VWS V14.01,2013-06-01 11:20:00,
2013-06-01 05:25:00,52.9,14.1,30.03,NNE,22,0.2,0.2,21,0.00,,---,0.00,VWS V14.01,2013-06-01 11:25:00,
2013-06-01 05:30:00,52.9,14.1,30.03,NNE,22,0.4,0.4,21,0.00,,---,0.00,VWS V14.01,2013-06-01 11:30:00,
2013-06-01 05:35:00,52.6,13.8,30.03,NNE,22,0.0,0.0,21,0.00,,---,0.00,VWS V14.01,2013-06-01 11:35:00,
2013-06-01 05:40:00,52.2,13.5,30.04,NNE,22,0.2,0.2,21,0.00,,---,0.00,VWS V14.01,2013-06-01 11:40:00,
2013-06-01 05:45:00,52.4,13.6,30.04,East,90,0.2,0.2,21,0.00,,---,0.00,VWS V14.01,2013-06-01 11:45:00,
2013-06-01 05:50:00,52.2,14.5,30.04,SSE,158,0.4,0.4,22,0.00,,---,0.00,VWS V14.01,2013-06-01 11:50:00,
2013-06-01 05:55:00,52.4,13.6,30.04,SSE,158,0.2,0.2,21,0.00,,---,0.00,VWS V14.01,2013-06-01 11:55:00,
2013-06-01 06:00:00,52.6,13.8,30.04,SSE,158,0.0,0.0,21,0.00,,---,0.00,VWS V14.01,2013-06-01 12:00:00,
2013-06-01 06:05:00,52.0,13.3,30.04,SSE,158,0.0,0.0,21,0.00,,---,0.00,VWS V14.01,2013-06-01 12:05:00,
2013-06-01 06:10:00,51.7,13.0,30.04,SSE,158,0.0,0.0,21,0.00,,---,0.00,VWS V14.01,2013-06-01 12:10:00,
2013-06-01 06:15:00,51.5,13.9,30.05,ESE,112,0.2,0.2,22,0.00,,---,0.00,VWS V14.01,2013-06-01 12:15:00,
2013-06-01 06:20:00,51.3,14.8,30.05,ENE,68,0.4,0.7,23,0.00,,---,0.00,VWS V14.01,2013-06-01 12:20:00,
2013-06-01 06:25:00,51.1,15.6,30.05,ENE,68,0.9,0.9,24,0.00,,---,0.00,VWS V14.01,2013-06-01 12:25:00,
2013-06-01 06:30:00,52.7,16.0,30.05,ENE,68,0.4,0.4,23,0.00,,---,0.00,VWS V14.01,2013-06-01 12:30:00,
2013-06-01 06:35:00,54.9,16.8,30.05,ENE,68,0.0,0.0,22,0.00,,---,0.00,VWS V14.01,2013-06-01 12:35:00,
2013-06-01 06:40:00,56.5,17.1,30.05,ENE,68,0.4,0.4,21,0.00,,---,0.00,VWS V14.01,2013-06-01 12:40:00,
2013-06-01 06:45:00,58.0,18.3,30.06,ENE,68,0.7,0.7,21,0.00,,---,0.00,VWS V14.01,2013-06-01 12:45:00,
2013-06-01 06:50:00,58.7,17.8,30.06,NE,45,1.1,1.1,20,0.00,,---,0.00,VWS V14.01,2013-06-01 12:50:00,
2013-06-01 06:55:00,59.6,17.3,30.06,ENE,68,0.9,0.9,19,0.00,,---,0.00,VWS V14.01,2013-06-01 12:55:00,
2013-06-01 07:00:00,60.5,16.8,30.06,ENE,68,1.1,1.1,18,0.00,,---,0.00,VWS V14.01,2013-06-01 13:00:00,
2013-06-01 07:05:00,62.1,18.1,30.06,ENE,68,0.0,0.0,18,0.00,,---,0.00,VWS V14.01,2013-06-01 13:05:00,
2013-06-01 07:10:00,64.4,20.0,30.06,North,0,0.0,0.0,18,0.00,,---,0.00,VWS V14.01,2013-06-01 13:10:00,
2013-06-01 07:15:00,66.1,20.0,30.06,North,0,0.0,0.0,17,0.00,,---,0.00,VWS V14.01,2013-06-01 13:15:00,
2013-06-01 07:20:00,68.2,21.8,30.06,North,0,0.0,0.0,17,0.00,,---,0.00,VWS V14.01,2013-06-01 13:20:00,
2013-06-01 07:25:00,69.5,22.8,30.06,NNE,22,0.0,0.0,17,0.00,,---,0.00,VWS V14.01,2013-06-01 13:25:00,
2013-06-01 07:30:00,70.4,22.1,30.06,NNE,22,0.0,0.0,16,0.00,,---,0.00,VWS V14.01,2013-06-01 13:30:00,
2013-06-01 07:35:00,71.1,22.7,30.06,West,270,0.2,0.2,16,0.00,,---,0.00,VWS V14.01,2013-06-01 13:35:00,
2013-06-01 07:40:00,71.3,21.3,30.06,West,270,0.7,0.7,15,0.00,,---,0.00,VWS V14.01,2013-06-01 13:40:00,
2013-06-01 07:45:00,70.7,17.5,30.06,WNW,292,3.8,3.8,13,0.00,,---,0.00,VWS V14.01,2013-06-01 13:45:00,
2013-06-01 07:50:00,67.5,15.0,30.06,WNW,292,2.7,2.7,13,0.00,,---,0.00,VWS V14.01,2013-06-01 13:50:00,
2013-06-01 07:55:00,66.1,15.6,30.06,NW,315,2.9,2.9,14,0.00,,---,0.00,VWS V14.01,2013-06-01 13:55:00,
2013-06-01 08:00:00,65.3,14.9,30.06,North,0,1.8,1.8,14,0.00,,---,0.00,VWS V14.01,2013-06-01 14:00:00,
2013-06-01 08:05:00,64.8,12.8,30.06,North,0,4.3,4.3,13,0.00,,---,0.00,VWS V14.01,2013-06-01 14:05:00,
2013-06-01 08:10:00,65.3,13.2,30.06,NE,45,4.7,4.7,13,0.00,,---,0.00,VWS V14.01,2013-06-01 14:10:00,
2013-06-01 08:15:00,65.9,13.7,30.06,North,0,1.8,1.8,13,0.00,,---,0.00,VWS V14.01,2013-06-01 14:15:00,
2013-06-01 08:20:00,66.4,12.3,30.06,NNE,22,3.6,3.6,12,0.00,,---,0.00,VWS V14.01,2013-06-01 14:20:00,
2013-06-01 08:25:00,66.8,12.6,30.06,NW,315,2.5,2.5,12,0.00,,---,0.00,VWS V14.01,2013-06-01 14:25:00,
2013-06-01 08:30:00,66.8,12.6,30.06,North,0,2.9,2.9,12,0.00,,---,0.00,VWS V14.01,2013-06-01 14:30:00,
2013-06-01 08:35:00,65.9,11.9,30.06,North,0,5.1,5.1,12,0.00,,---,0.00,VWS V14.01,2013-06-01 14:35:00,
2013-06-01 08:40:00,66.2,12.1,30.06,NNW,338,5.8,5.8,12,0.00,,---,0.00,VWS V14.01,2013-06-01 14:40:00,
2013-06-01 08:45:00,66.6,10.5,30.07,NW,315,10.1,10.1,11,0.00,,---,0.00,VWS V14.01,2013-06-01 14:45:00,
2013-06-01 08:50:00,66.2,12.1,30.07,NW,315,7.8,7.8,12,0.00,,---,0.00,VWS V14.01,2013-06-01 14:50:00,
2013-06-01 08:55:00,67.0,12.8,30.07,NW,315,1.8,1.8,12,0.00,,---,0.00,VWS V14.01,2013-06-01 14:55:00,
2013-06-01 09:00:00,67.9,13.4,30.07,North,0,2.0,2.0,12,0.00,,---,0.00,VWS V14.01,2013-06-01 15:00:00,
2013-06-01 09:05:00,67.5,11.2,30.07,WNW,292,6.9,6.9,11,0.00,,---,0.00,VWS V14.01,2013-06-01 15:05:00,
2013-06-01 09:10:00,67.3,11.0,30.07,NNW,338,4.5,4.5,11,0.00,,---,0.00,VWS V14.01,2013-06-01 15:10:00,
2013-06-01 09:15:00,67.3,11.0,30.07,NW,315,7.6,7.6,11,0.00,,---,0.00,VWS V14.01,2013-06-01 15:15:00,
2013-06-01 09:20:00,67.3,11.0,30.07,North,0,2.2,2.2,11,0.00,,---,0.00,VWS V14.01,2013-06-01 15:20:00,
2013-06-01 09:25:00,68.0,11.6,30.07,NW,315,8.3,8.3,11,0.00,,---,0.00,VWS V14.01,2013-06-01 15:25:00,
2013-06-01 09:30:00,68.6,12.0,30.07,NW,315,4.9,4.9,11,0.00,,---,0.00,VWS V14.01,2013-06-01 15:30:00,
2013-06-01 09:35:00,69.1,12.4,30.06,NW,315,4.0,4.0,11,0.00,,---,0.00,VWS V14.01,2013-06-01 15:35:00,
2013-06-01 09:40:00,69.1,12.4,30.06,NW,315,3.8,3.8,11,0.00,,---,0.00,VWS V14.01,2013-06-01 15:40:00,
2013-06-01 09:45:00,69.5,12.7,30.06,NNW,338,7.4,7.4,11,0.00,,---,0.00,VWS V14.01,2013-06-01 15:45:00,
2013-06-01 09:50:00,69.5,10.6,30.06,NNW,338,5.6,5.6,10,0.00,,---,0.00,VWS V14.01,2013-06-01 15:50:00,
2013-06-01 09:55:00,69.8,13.0,30.06,NW,315,4.9,4.9,11,0.00,,---,0.00,VWS V14.01,2013-06-01 15:55:00,
2013-06-01 10:00:00,70.6,13.6,30.06,NNE,22,3.6,3.6,11,0.00,,---,0.00,VWS V14.01,2013-06-01 16:00:00,
2013-06-01 10:05:00,70.7,11.5,30.06,NNW,338,5.8,5.8,10,0.00,,---,0.00,VWS V14.01,2013-06-01 16:05:00,
2013-06-01 10:10:00,71.3,12.0,30.06,NW,315,5.8,5.8,10,0.00,,---,0.00,VWS V14.01,2013-06-01 16:10:00,
2013-06-01 10:15:00,71.3,12.0,30.06,NW,315,4.7,4.7,10,0.00,,---,0.00,VWS V14.01,2013-06-01 16:15:00,
2013-06-01 10:20:00,71.6,12.2,30.05,NW,315,1.8,1.8,10,0.00,,---,0.00,VWS V14.01,2013-06-01 16:20:00,
2013-06-01 10:25:00,72.7,13.0,30.05,NW,315,3.8,3.8,10,0.00,,---,0.00,VWS V14.01,2013-06-01 16:25:00,
2013-06-01 10:30:00,73.6,13.7,30.06,WNW,292,6.7,6.7,10,0.00,,---,0.00,VWS V14.01,2013-06-01 16:30:00,
2013-06-01 10:35:00,73.4,8.6,30.05,NW,315,5.1,5.1,8,0.00,,---,0.00,VWS V14.01,2013-06-01 16:35:00,
2013-06-01 10:40:00,73.6,8.7,30.05,NW,315,4.0,4.0,8,0.00,,---,0.00,VWS V14.01,2013-06-01 16:40:00,
2013-06-01 10:45:00,74.0,9.0,30.05,North,0,4.9,4.9,8,0.00,,---,0.00,VWS V14.01,2013-06-01 16:45:00,
2013-06-01 10:50:00,73.1,8.3,30.05,NNW,338,4.9,4.9,8,0.00,,---,0.00,VWS V14.01,2013-06-01 16:50:00,
2013-06-01 10:55:00,73.6,8.7,30.05,NNW,338,3.4,3.4,8,0.00,,---,0.00,VWS V14.01,2013-06-01 16:55:00,
2013-06-01 11:00:00,74.5,9.4,30.05,NW,315,3.4,3.4,8,0.00,,---,0.00,VWS V14.01,2013-06-01 17:00:00,
2013-06-01 11:05:00,74.9,9.7,30.05,NNE,22,2.0,2.0,8,0.00,,---,0.00,VWS V14.01,2013-06-01 17:05:00,
2013-06-01 11:10:00,74.9,9.7,30.05,NW,315,2.7,2.7,8,0.00,,---,0.00,VWS V14.01,2013-06-01 17:10:00,
2013-06-01 11:15:00,74.5,9.4,30.05,WNW,292,5.6,5.6,8,0.00,,---,0.00,VWS V14.01,2013-06-01 17:15:00,
2013-06-01 11:20:00,75.2,6.9,30.05,West,270,4.5,4.5,7,0.00,,---,0.00,VWS V14.01,2013-06-01 17:20:00,
2013-06-01 11:24:00,75.6,7.2,30.05,NW,315,5.1,5.1,7,0.00,,---,0.00,VWS V14.01,2013-06-01 17:24:00,
2013-06-01 11:29:00,75.1,6.9,30.05,NNW,338,4.3,4.3,7,0.00,,---,0.00,VWS V14.01,2013-06-01 17:29:00,
2013-06-01 11:34:00,75.4,7.1,30.06,WSW,248,2.9,2.9,7,0.00,,---,0.00,VWS V14.01,2013-06-01 17:34:00,
2013-06-01 11:39:00,75.2,9.9,30.05,NNW,338,5.4,5.4,8,0.00,,---,0.00,VWS V14.01,2013-06-01 17:39:00,
2013-06-01 11:44:00,75.4,7.1,30.05,NNW,338,2.5,2.5,7,0.00,,---,0.00,VWS V14.01,2013-06-01 17:44:00,
2013-06-01 11:49:00,75.8,7.4,30.05,NNW,338,6.3,6.3,7,0.00,,---,0.00,VWS V14.01,2013-06-01 17:49:00,
2013-06-01 11:54:00,75.2,6.9,30.05,NW,315,11.0,11.0,7,0.00,,---,0.00,VWS V14.01,2013-06-01 17:54:00,
2013-06-01 11:59:00,75.2,6.9,30.05,WNW,292,4.5,4.5,7,0.00,,---,0.00,VWS V14.01,2013-06-01 17:59:00,
2013-06-01 12:04:00,75.4,7.1,30.06,NW,315,9.8,9.8,7,0.00,,---,0.00,VWS V14.01,2013-06-01 18:04:00,
2013-06-01 12:09:00,75.6,7.2,30.05,NW,315,3.1,3.1,7,0.00,,---,0.00,VWS V14.01,2013-06-01 18:09:00,
2013-06-01 12:14:00,76.5,7.9,30.05,NW,315,3.4,3.4,7,0.00,,---,0.00,VWS V14.01,2013-06-01 18:14:00,
2013-06-01 12:19:00,77.0,8.3,30.05,WSW,248,5.1,5.1,7,0.00,,---,0.00,VWS V14.01,2013-06-01 18:19:00,
2013-06-01 12:24:00,77.2,8.4,30.05,WSW,248,6.0,6.0,7,0.00,,---,0.00,VWS V14.01,2013-06-01 18:24:00,
2013-06-01 12:29:00,77.4,8.6,30.05,NW,315,4.7,4.7,7,0.00,,---,0.00,VWS V14.01,2013-06-01 18:29:00,
2013-06-01 12:34:00,77.2,8.4,30.05,WNW,292,4.9,4.9,7,0.00,,---,0.00,VWS V14.01,2013-06-01 18:34:00,
2013-06-01 12:39:00,77.6,8.7,30.05,West,270,2.2,2.2,7,0.00,,---,0.00,VWS V14.01,2013-06-01 18:39:00,
2013-06-01 12:44:00,77.2,8.4,30.04,West,270,1.6,1.6,7,0.00,,---,0.00,VWS V14.01,2013-06-01 18:44:00,
2013-06-01 12:49:00,77.4,8.6,30.04,West,270,2.0,2.0,7,0.00,,---,0.00,VWS V14.01,2013-06-01 18:49:00,
2013-06-01 12:54:00,77.6,8.7,30.04,NE,45,6.3,6.3,7,0.00,,---,0.00,VWS V14.01,2013-06-01 18:54:00,
2013-06-01 12:59:00,77.2,8.4,30.04,NNW,338,8.3,8.3,7,0.00,,---,0.00,VWS V14.01,2013-06-01 18:59:00,
2013-06-01 13:04:00,77.6,8.7,30.04,ENE,68,3.1,3.1,7,0.00,,---,0.00,VWS V14.01,2013-06-01 19:04:00,
2013-06-01 13:09:00,78.3,9.2,30.04,SW,225,1.3,1.3,7,0.00,,---,0.00,VWS V14.01,2013-06-01 19:09:00,
2013-06-01 13:14:00,78.3,9.2,30.04,WNW,292,4.7,4.7,7,0.00,,---,0.00,VWS V14.01,2013-06-01 19:14:00,
2013-06-01 13:19:00,77.8,5.4,30.04,WSW,248,4.5,4.5,6,0.00,,---,0.00,VWS V14.01,2013-06-01 19:19:00,
2013-06-01 13:24:00,78.5,5.9,30.04,WNW,292,7.8,7.8,6,0.00,,---,0.00,VWS V14.01,2013-06-01 19:24:00,
2013-06-01 13:29:00,78.3,5.8,30.03,WSW,248,1.8,1.8,6,0.00,,---,0.00,VWS V14.01,2013-06-01 19:29:00,
2013-06-01 13:34:00,79.6,6.8,30.03,WSW,248,2.7,2.7,6,0.00,,---,0.00,VWS V14.01,2013-06-01 19:34:00,
2013-06-01 13:39:00,79.9,7.0,30.04,West,270,1.8,1.8,6,0.00,,---,0.00,VWS V14.01,2013-06-01 19:39:00,
2013-06-01 13:44:00,79.7,2.8,30.03,WNW,292,3.6,3.6,5,0.00,,---,0.00,VWS V14.01,2013-06-01 19:44:00,
2013-06-01 13:49:00,80.1,7.1,30.03,WSW,248,1.8,4.0,6,0.00,,---,0.00,VWS V14.01,2013-06-01 19:49:00,
2013-06-01 13:54:00,80.3,7.2,30.02,NW,315,4.7,4.7,6,0.00,,---,0.00,VWS V14.01,2013-06-01 19:54:00,
2013-06-01 13:59:00,80.1,7.1,30.02,WNW,292,2.9,2.9,6,0.00,,---,0.00,VWS V14.01,2013-06-01 19:59:00,
2013-06-01 14:04:00,80.5,7.4,30.02,WNW,292,4.5,4.5,6,0.00,,---,0.00,VWS V14.01,2013-06-01 20:04:00,
2013-06-01 14:09:00,81.2,3.9,30.02,NNW,338,5.6,5.6,5,0.00,,---,0.00,VWS V14.01,2013-06-01 20:09:00,
2013-06-01 14:14:00,80.3,3.3,30.02,WNW,292,4.0,4.0,5,0.00,,---,0.00,VWS V14.01,2013-06-01 20:14:00,
2013-06-01 14:19:00,80.5,3.4,30.02,NNW,338,2.7,2.7,5,0.00,,---,0.00,VWS V14.01,2013-06-01 20:19:00,
2013-06-01 14:24:00,79.9,3.0,30.02,NW,315,2.9,2.9,5,0.00,,---,0.00,VWS V14.01,2013-06-01 20:24:00,
2013-06-01 14:29:00,80.1,7.1,30.01,NW,315,7.6,7.6,6,0.00,,---,0.00,VWS V14.01,2013-06-01 20:29:00,
2013-06-01 14:34:00,80.6,7.5,30.02,West,270,4.0,4.0,6,0.00,,---,0.00,VWS V14.01,2013-06-01 20:34:00,
2013-06-01 14:39:00,80.6,3.5,30.01,North,0,2.5,2.5,5,0.00,,---,0.00,VWS V14.01,2013-06-01 20:39:00,
2013-06-01 14:44:00,81.2,3.9,30.01,North,0,1.3,1.3,5,0.00,,---,0.00,VWS V14.01,2013-06-01 20:44:00,
2013-06-01 14:49:00,81.7,4.3,30.01,NNW,338,2.0,2.0,5,0.00,,---,0.00,VWS V14.01,2013-06-01 20:49:00,
2013-06-01 14:54:00,82.4,4.8,30.01,NNE,22,3.1,3.1,5,0.00,,---,0.00,VWS V14.01,2013-06-01 20:54:00,
2013-06-01 14:59:00,82.1,-6.3,30.01,East,90,2.9,2.9,3,0.00,,---,0.00,VWS V14.01,2013-06-01 20:59:00,
2013-06-01 15:04:00,81.9,4.4,30.01,NNW,338,6.9,6.9,5,0.00,,---,0.00,VWS V14.01,2013-06-01 21:04:00,
2013-06-01 15:09:00,81.7,4.3,30.01,NW,315,2.0,2.0,5,0.00,,---,0.00,VWS V14.01,2013-06-01 21:09:00,
2013-06-01 15:14:00,82.4,4.8,30.00,South,180,1.1,1.1,5,0.00,,---,0.00,VWS V14.01,2013-06-01 21:14:00,
2013-06-01 15:19:00,83.5,5.5,30.01,SW,225,2.9,2.9,5,0.00,,---,0.00,VWS V14.01,2013-06-01 21:19:00,
2013-06-01 15:24:00,83.5,5.5,30.00,NNW,338,1.8,1.8,5,0.00,,---,0.00,VWS V14.01,2013-06-01 21:24:00,
2013-06-01 15:29:00,83.9,5.8,30.01,SE,135,0.0,0.0,5,0.00,,---,0.00,VWS V14.01,2013-06-01 21:29:00,
2013-06-01 15:34:00,84.4,-4.7,30.00,NNE,22,4.5,4.5,3,0.00,,---,0.00,VWS V14.01,2013-06-01 21:34:00,
2013-06-01 15:39:00,83.9,1.0,30.00,WNW,292,4.5,4.5,4,0.00,,---,0.00,VWS V14.01,2013-06-01 21:39:00,
2013-06-01 15:44:00,84.2,6.0,30.01,WSW,248,1.6,1.6,5,0.00,,---,0.00,VWS V14.01,2013-06-01 21:44:00,
2013-06-01 15:49:00,84.2,-4.9,30.00,SW,225,2.5,2.5,3,0.00,,---,0.00,VWS V14.01,2013-06-01 21:49:00,
2013-06-01 15:54:00,85.3,6.8,30.01,SW,225,1.8,1.8,5,0.00,,---,0.00,VWS V14.01,2013-06-01 21:54:00,
2013-06-01 15:59:00,86.6,-3.3,30.00,NW,315,2.9,2.9,3,0.00,,---,0.00,VWS V14.01,2013-06-01 21:59:00,
2013-06-01 16:04:00,86.0,-3.7,30.00,WSW,248,1.6,1.6,3,0.00,,---,0.00,VWS V14.01,2013-06-01 22:04:00,
2013-06-01 16:09:00,86.8,-3.1,30.00,WNW,292,0.7,0.7,3,0.00,,---,0.00,VWS V14.01,2013-06-01 22:09:00,
2013-06-01 16:14:00,86.9,-3.1,29.99,North,0,4.0,4.0,3,0.00,,---,0.00,VWS V14.01,2013-06-01 22:14:00,
2013-06-01 16:19:00,86.9,-3.1,30.00,WNW,292,1.6,1.6,3,0.00,,---,0.00,VWS V14.01,2013-06-01 22:19:00,
2013-06-01 16:24:00,86.4,-3.4,29.99,WSW,248,1.6,1.6,3,0.00,,---,0.00,VWS V14.01,2013-06-01 22:24:00,
2013-06-01 16:29:00,86.0,-3.7,29.99,SE,135,1.1,1.1,3,0.00,,---,0.00,VWS V14.01,2013-06-01 22:29:00,
2013-06-01 16:34:00,86.2,-3.5,29.98,SSE,158,1.1,1.1,3,0.00,,---,0.00,VWS V14.01,2013-06-01 22:34:00,
2013-06-01 16:39:00,87.5,-2.7,29.99,WSW,248,1.8,1.8,3,0.00,,---,0.00,VWS V14.01,2013-06-01 22:39:00,
2013-06-01 16:44:00,88.0,-10.7,29.99,East,90,0.9,0.9,2,0.00,,---,0.00,VWS V14.01,2013-06-01 22:44:00,
2013-06-01 16:49:00,86.6,-3.3,29.98,North,0,0.7,0.7,3,0.00,,---,0.00,VWS V14.01,2013-06-01 22:49:00,
2013-06-01 16:54:00,87.7,-10.9,29.99,North,0,2.7,2.7,2,0.00,,---,0.00,VWS V14.01,2013-06-01 22:54:00,
2013-06-01 16:59:00,87.1,-11.2,29.98,NNW,338,2.7,2.7,2,0.00,,---,0.00,VWS V14.01,2013-06-01 22:59:00,
2013-06-01 17:04:00,86.4,-11.7,29.98,North,0,2.0,2.0,2,0.00,,---,0.00,VWS V14.01,2013-06-01 23:04:00,
2013-06-01 17:09:00,85.5,-12.3,29.98,NE,45,5.4,5.4,2,0.00,,---,0.00,VWS V14.01,2013-06-01 23:09:00,
2013-06-01 17:14:00,85.7,-12.1,29.98,ENE,68,2.7,2.7,2,0.00,,---,0.00,VWS V14.01,2013-06-01 23:14:00,
2013-06-01 17:19:00,86.9,-11.4,29.98,NE,45,1.8,1.8,2,0.00,,---,0.00,VWS V14.01,2013-06-01 23:19:00,
2013-06-01 17:24:00,87.5,-11.0,29.98,NW,315,1.3,1.3,2,0.00,,---,0.00,VWS V14.01,2013-06-01 23:24:00,
2013-06-01 17:29:00,87.3,-11.1,29.98,North,0,2.5,2.5,2,0.00,,---,0.00,VWS V14.01,2013-06-01 23:29:00,
2013-06-01 17:34:00,87.3,-11.1,29.98,East,90,0.4,0.4,2,0.00,,---,0.00,VWS V14.01,2013-06-01 23:34:00,
2013-06-01 17:39:00,87.5,-11.0,29.98,NW,315,2.0,2.0,2,0.00,,---,0.00,VWS V14.01,2013-06-01 23:39:00,
2013-06-01 17:44:00,87.5,-2.7,29.98,West,270,1.6,1.6,3,0.00,,---,0.00,VWS V14.01,2013-06-01 23:44:00,
2013-06-01 17:49:00,88.2,-2.2,29.97,WSW,248,2.9,2.9,3,0.00,,---,0.00,VWS V14.01,2013-06-01 23:49:00,
2013-06-01 17:54:00,88.9,-1.7,29.98,SW,225,1.8,1.8,3,0.00,,---,0.00,VWS V14.01,2013-06-01 23:54:00,
2013-06-01 17:59:00,87.8,-2.5,29.98,NW,315,1.6,1.6,3,0.00,,---,0.00,VWS V14.01,2013-06-01 23:59:00,
2013-06-01 18:04:00,88.2,-10.6,29.97,NNW,338,1.3,1.3,2,0.00,,---,0.00,VWS V14.01,2013-06-02 00:04:00,
2013-06-01 18:09:00,87.3,-11.1,29.97,North,0,5.6,5.6,2,0.00,,---,0.00,VWS V14.01,2013-06-02 00:09:00,
2013-06-01 18:14:00,86.4,-3.4,29.97,NW,315,3.6,3.6,3,0.00,,---,0.00,VWS V14.01,2013-06-02 00:14:00,
2013-06-01 18:19:00,86.8,-11.4,29.97,NE,45,2.5,2.5,2,0.00,,---,0.00,VWS V14.01,2013-06-02 00:19:00,
2013-06-01 18:24:00,86.9,-3.1,29.97,NW,315,2.2,2.2,3,0.00,,---,0.00,VWS V14.01,2013-06-02 00:24:00,
2013-06-01 18:29:00,87.5,-2.7,29.96,SW,225,0.9,0.9,3,0.00,,---,0.00,VWS V14.01,2013-06-02 00:29:00,
2013-06-01 18:34:00,88.4,-2.1,29.97,WSW,248,1.8,1.8,3,0.00,,---,0.00,VWS V14.01,2013-06-02 00:34:00,
2013-06-01 18:39:00,87.8,-10.8,29.97,NNE,22,1.1,1.1,2,0.00,,---,0.00,VWS V14.01,2013-06-02 00:39:00,
2013-06-01 18:44:00,87.1,-2.9,29.96,NNE,22,0.2,0.2,3,0.00,,---,0.00,VWS V14.01,2013-06-02 00:44:00,
2013-06-01 18:49:00,87.5,-2.7,29.97,East,90,0.2,0.2,3,0.00,,---,0.00,VWS V14.01,2013-06-02 00:49:00,
2013-06-01 18:54:00,88.2,-2.2,29.97,WNW,292,0.0,0.0,3,0.00,,---,0.00,VWS V14.01,2013-06-02 00:54:00,
2013-06-01 18:59:00,87.7,-2.5,29.96,NNW,338,2.0,2.0,3,0.00,,---,0.00,VWS V14.01,2013-06-02 00:59:00,
2013-06-01 19:04:00,87.1,-2.9,29.97,NNE,22,0.2,0.2,3,0.00,,---,0.00,VWS V14.01,2013-06-02 01:04:00,
2013-06-01 19:09:00,86.8,-3.1,29.96,North,0,0.4,0.4,3,0.00,,---,0.00,VWS V14.01,2013-06-02 01:09:00,
2013-06-01 19:14:00,87.3,-2.8,29.97,North,0,0.0,0.0,3,0.00,,---,0.00,VWS V14.01,2013-06-02 01:14:00,
2013-06-01 19:19:00,88.2,-2.2,29.97,WNW,292,0.4,0.4,3,0.00,,---,0.00,VWS V14.01,2013-06-02 01:19:00,
2013-06-01 19:24:00,88.6,-1.9,29.97,WNW,292,0.4,0.4,3,0.00,,---,0.00,VWS V14.01,2013-06-02 01:24:00,
2013-06-01 19:29:00,87.8,-10.8,29.97,NNE,22,1.8,1.8,2,0.00,,---,0.00,VWS V14.01,2013-06-02 01:29:00,
2013-06-01 19:34:00,86.8,-3.1,29.97,NNE,22,1.8,1.8,3,0.00,,---,0.00,VWS V14.01,2013-06-02 01:34:00,
2013-06-01 19:39:00,85.7,-3.9,29.97,NNE,22,1.1,1.1,3,0.00,,---,0.00,VWS V14.01,2013-06-02 01:39:00,
2013-06-01 19:44:00,85.1,-4.3,29.97,North,0,0.4,0.4,3,0.00,,---,0.00,VWS V14.01,2013-06-02 01:44:00,
2013-06-01 19:49:00,84.4,-4.7,29.97,North,0,0.4,0.4,3,0.00,,---,0.00,VWS V14.01,2013-06-02 01:49:00,
2013-06-01 19:54:00,83.9,5.8,29.97,North,0,0.0,0.0,5,0.00,,---,0.00,VWS V14.01,2013-06-02 01:54:00,
2013-06-01 19:59:00,83.2,5.3,29.97,NW,315,0.7,0.7,5,0.00,,---,0.00,VWS V14.01,2013-06-02 01:59:00,
2013-06-01 20:04:00,82.3,4.7,29.97,WSW,248,1.1,1.1,5,0.00,,---,0.00,VWS V14.01,2013-06-02 02:04:00,
2013-06-01 20:09:00,81.4,8.0,29.98,West,270,0.7,0.7,6,0.00,,---,0.00,VWS V14.01,2013-06-02 02:09:00,
2013-06-01 20:14:00,80.3,7.2,29.98,North,0,1.1,1.1,6,0.00,,---,0.00,VWS V14.01,2013-06-02 02:14:00,
2013-06-01 20:19:00,79.9,10.4,29.98,North,0,0.2,0.2,7,0.00,,---,0.00,VWS V14.01,2013-06-02 02:19:00,
2013-06-01 20:24:00,79.2,9.9,29.98,NNW,338,0.4,0.4,7,0.00,,---,0.00,VWS V14.01,2013-06-02 02:24:00,
2013-06-01 20:29:00,78.7,9.5,29.98,NNE,22,1.1,1.1,7,0.00,,---,0.00,VWS V14.01,2013-06-02 02:29:00,
2013-06-01 20:34:00,78.1,9.1,29.98,ENE,68,1.3,1.3,7,0.00,,---,0.00,VWS V14.01,2013-06-02 02:34:00,
2013-06-01 20:39:00,77.8,8.8,29.99,East,90,1.8,1.8,7,0.00,,---,0.00,VWS V14.01,2013-06-02 02:39:00,
2013-06-01 20:44:00,77.9,19.2,30.00,NE,45,0.2,0.2,11,0.00,,---,0.00,VWS V14.01,2013-06-02 02:44:00,
2013-06-01 20:49:00,77.9,23.1,29.99,ESE,112,1.6,1.6,13,0.00,,---,0.00,VWS V14.01,2013-06-02 02:49:00,
2013-06-01 20:54:00,78.1,26.7,30.00,SE,135,0.9,0.9,15,0.00,,---,0.00,VWS V14.01,2013-06-02 02:54:00,
2013-06-01 20:59:00,77.9,26.6,30.00,ESE,112,1.8,1.8,15,0.00,,---,0.00,VWS V14.01,2013-06-02 02:59:00,
2013-06-01 21:04:00,77.8,28.1,30.00,East,90,1.1,1.1,16,0.00,,---,0.00,VWS V14.01,2013-06-02 03:04:00,
2013-06-01 21:09:00,77.4,27.7,30.00,SE,135,3.1,3.1,16,0.00,,---,0.00,VWS V14.01,2013-06-02 03:09:00,
2013-06-01 21:14:00,77.2,29.0,30.01,SE,135,5.1,5.1,17,0.00,,---,0.00,VWS V14.01,2013-06-02 03:14:00,
2013-06-01 21:19:00,77.0,28.9,30.01,ESE,112,5.8,5.8,17,0.00,,---,0.00,VWS V14.01,2013-06-02 03:19:00,
2013-06-01 21:24:00,76.7,30.0,30.01,SSE,158,4.3,4.3,18,0.00,,---,0.00,VWS V14.01,2013-06-02 03:24:00,
2013-06-01 21:29:00,76.3,29.7,30.01,SE,135,4.7,4.7,18,0.00,,---,0.00,VWS V14.01,2013-06-02 03:29:00,
2013-06-01 21:34:00,76.0,29.5,30.01,SE,135,4.5,4.5,18,0.00,,---,0.00,VWS V14.01,2013-06-02 03:34:00,
2013-06-01 21:39:00,75.8,29.3,30.02,ESE,112,3.8,3.8,18,0.00,,---,0.00,VWS V14.01,2013-06-02 03:39:00,
2013-06-01 21:44:00,75.4,30.3,30.02,SSE,158,4.0,4.0,19,0.00,,---,0.00,VWS V14.01,2013-06-02 03:44:00,
2013-06-01 21:49:00,75.2,30.1,30.02,SE,135,3.4,3.4,19,0.00,,---,0.00,VWS V14.01,2013-06-02 03:49:00,
2013-06-01 21:54:00,75.1,30.1,30.02,SSE,158,7.8,7.8,19,0.00,,---,0.00,VWS V14.01,2013-06-02 03:54:00,
2013-06-01 21:59:00,74.9,29.9,30.02,East,90,4.0,4.0,19,0.00,,---,0.00,VWS V14.01,2013-06-02 03:59:00,
2013-06-01 22:01:00,74.9,29.9,30.02,SSE,158,4.5,4.5,19,0.00,,---,0.00,VWS V14.01,2013-06-02 04:01:00,
2013-06-01 22:06:00,74.5,29.6,30.02,ESE,112,3.1,3.1,19,0.00,,---,0.00,VWS V14.01,2013-06-02 04:06:00,
2013-06-01 22:11:00,74.3,29.4,30.02,SSE,158,5.4,5.4,19,0.00,,---,0.00,VWS V14.01,2013-06-02 04:11:00,
2013-06-01 22:16:00,74.3,29.4,30.03,ESE,112,4.3,4.3,19,0.00,,---,0.00,VWS V14.01,2013-06-02 04:16:00,
2013-06-01 22:21:00,74.2,29.3,30.03,SE,135,6.9,6.9,19,0.00,,---,0.00,VWS V14.01,2013-06-02 04:21:00,
2013-06-01 22:26:00,74.0,29.2,30.03,East,90,6.7,6.7,19,0.00,,---,0.00,VWS V14.01,2013-06-02 04:26:00,
2013-06-01 22:31:00,73.8,30.3,30.03,SSE,158,5.4,5.4,20,0.00,,---,0.00,VWS V14.01,2013-06-02 04:31:00,
2013-06-01 22:36:00,73.4,29.9,30.03,ESE,112,8.5,8.5,20,0.00,,---,0.00,VWS V14.01,2013-06-02 04:36:00,
2013-06-01 22:41:00,73.3,31.0,30.03,ESE,112,9.8,9.8,21,0.00,,---,0.00,VWS V14.01,2013-06-02 04:41:00,
2013-06-01 22:46:00,73.1,29.7,30.03,ESE,112,7.4,7.4,20,0.00,,---,0.00,VWS V14.01,2013-06-02 04:46:00,
2013-06-01 22:51:00,73.1,30.9,30.02,SE,135,6.0,6.0,21,0.00,,---,0.00,VWS V14.01,2013-06-02 04:51:00,
2013-06-01 22:56:00,72.7,30.5,30.03,SSE,158,6.9,6.9,21,0.00,,---,0.00,VWS V14.01,2013-06-02 04:56:00,
2013-06-01 23:01:00,72.4,30.3,30.03,ESE,112,9.6,9.6,21,0.00,,---,0.00,VWS V14.01,2013-06-02 05:01:00,
2013-06-01 23:06:00,72.4,30.3,30.02,ESE,112,8.1,8.1,21,0.00,,---,0.00,VWS V14.01,2013-06-02 05:06:00,
2013-06-01 23:11:00,72.4,30.3,30.02,ESE,112,4.7,4.7,21,0.00,,---,0.00,VWS V14.01,2013-06-02 05:11:00,
2013-06-01 23:16:00,72.0,30.0,30.03,ENE,68,9.4,9.4,21,0.00,,---,0.00,VWS V14.01,2013-06-02 05:16:00,
2013-06-01 23:21:00,72.0,31.1,30.03,East,90,8.3,8.3,22,0.00,,---,0.00,VWS V14.01,2013-06-02 05:21:00,
2013-06-01 23:26:00,71.8,30.9,30.03,SSW,202,11.9,11.9,22,0.00,,---,0.00,VWS V14.01,2013-06-02 05:26:00,
2013-06-01 23:31:00,71.8,30.9,30.03,East,90,12.5,12.5,22,0.00,,---,0.00,VWS V14.01,2013-06-02 05:31:00,
2013-06-01 23:36:00,71.6,30.8,30.03,SE,135,5.4,5.4,22,0.00,,---,0.00,VWS V14.01,2013-06-02 05:36:00,
2013-06-01 23:41:00,71.5,30.7,30.03,SE,135,8.7,8.7,22,0.00,,---,0.00,VWS V14.01,2013-06-02 05:41:00,
2013-06-01 23:46:00,71.3,30.5,30.03,SE,135,11.0,11.0,22,0.00,,---,0.00,VWS V14.01,2013-06-02 05:46:00,
2013-06-01 23:51:00,71.3,30.5,30.03,NE,45,11.4,11.4,22,0.00,,---,0.00,VWS V14.01,2013-06-02 05:51:00,
2013-06-01 23:56:00,71.3,30.5,30.03,East,90,11.4,11.4,22,0.00,,---,0.00,VWS V14.01,2013-06-02 05:56:00,